FW8708 Weather Reports


time (UTC)temp
F
wind
direction
speed
knots
gust
knots
rain 1hr
in
rain 24hr
in
rain mn
in
humidity
%
barometer
mb
20260503055027 38 273 1.7 5.2 0.00 0.00 0.00 73 1018.0
20260503054529 38 271 1.7 7.0 0.00 0.00 0.00 73 1018.0
20260503054027 38 271 2.6 7.0 0.00 0.00 0.00 73 1017.9
20260503053527 38 274 2.6 5.2 0.00 0.00 0.00 73 1018.0
20260503053034 38 277 1.7 5.2 0.00 0.00 0.00 72 1018.0
20260503052524 38 265 2.6 5.2 0.00 0.00 0.00 72 1017.9
20260503052025 38 315 0.9 7.0 0.00 0.00 0.00 71 1017.9
20260503051524 39 316 1.7 7.0 0.00 0.00 0.00 71 1018.0
20260503051021 39 277 0.9 7.8 0.00 0.00 0.00 71 1017.9
20260503050522 39 306 2.6 7.8 0.00 0.00 0.00 71 1017.9
20260503050023 39 264 2.6 6.1 0.00 0.00 0.00 70 1017.9
20260503045520 39 262 2.6 6.1 0.00 0.00 0.00 70 1017.8
20260503045019 39 249 2.6 6.1 0.00 0.00 0.00 70 1017.8
20260503044539 40 262 3.5 7.8 0.00 0.00 0.00 69 1017.9
20260503044017 40 271 1.7 7.8 0.00 0.00 0.00 69 1017.7
20260503043516 40 273 3.5 7.0 0.00 0.00 0.00 69 1017.7
20260503043032 40 281 3.5 7.8 0.00 0.00 0.00 69 1017.7
20260503042513 40 315 3.5 7.8 0.00 0.00 0.00 69 1017.6
20260503042012 40 277 1.7 11.3 0.00 0.00 0.00 70 1017.6
20260503041511 40 292 4.3 11.3 0.00 0.00 0.00 70 1017.7
20260503041011 39 321 4.3 9.6 0.00 0.00 0.00 70 1017.6
20260503040508 39 302 3.5 8.7 0.00 0.00 0.00 71 1017.6
20260503040007 38 340 0.9 5.2 0.00 0.00 0.00 72 1017.5
20260503035507 38 360 0.9 2.6 0.00 0.00 0.00 72 1017.5
20260503035006 38 360 0.9 2.6 0.00 0.00 0.00 72 1017.4
20260503034504 39 360 0.0 1.7 0.00 0.00 0.00 71 1017.4
20260503034004 39 360 0.0 2.6 0.00 0.00 0.00 70 1017.4
20260503033504 39 360 0.0 3.5 0.00 0.00 0.00 70 1017.4
20260503033002 40 360 0.0 3.5 0.00 0.00 0.00 69 1017.3
20260503032603 40 360 0.0 2.6 0.00 0.00 0.00 68 1017.2
20260503032100 40 360 0.0 3.5 0.00 0.00 0.00 67 1017.2
20260503031559 40 18 0.0 3.5 0.00 0.00 0.00 66 1017.1
20260503031059 41 360 0.9 3.5 0.00 0.00 0.00 66 1017.1
20260503030557 41 360 1.7 5.2 0.00 0.00 0.00 65 1017.0
20260503025556 41 290 1.7 5.2 0.00 0.00 0.00 64 1016.9
20260503025058 41 15 1.7 5.2 0.00 0.00 0.00 64 1017.0
20260503024555 42 355 1.7 7.0 0.00 0.00 0.00 64 1017.1
20260503024056 42 288 0.9 7.8 0.00 0.00 0.00 63 1017.1
20260503023555 42 302 3.5 7.8 0.00 0.00 0.00 63 1017.1
20260503023105 42 319 2.6 11.3 0.00 0.00 0.00 63 1017.2
20260503022554 42 342 4.3 11.3 0.00 0.00 0.00 63 1017.1
20260503022058 42 317 5.2 9.6 0.00 0.00 0.00 63 1017.0
20260503021558 42 336 1.7 7.8 0.00 0.00 0.00 64 1017.0
20260503021053 42 329 3.5 8.7 0.00 0.00 0.00 64 1017.0
20260503020553 42 338 2.6 8.7 0.00 0.00 0.00 65 1016.9
20260503020057 42 304 2.6 7.8 0.00 0.00 0.00 65 1017.0
20260503015551 42 298 2.6 7.8 0.00 0.00 0.00 65 1016.9
20260503015051 42 286 2.6 7.8 0.00 0.00 0.00 65 1016.8
20260503014551 42 335 3.5 8.7 0.00 0.00 0.00 65 1016.8
20260503014051 42 342 4.3 8.7 0.00 0.00 0.00 66 1016.7
20260503013554 41 335 2.6 7.8 0.00 0.00 0.00 66 1016.7
20260503013051 42 333 0.9 5.2 0.00 0.00 0.00 66 1016.6
20260503012549 42 350 1.7 4.3 0.00 0.00 0.00 66 1016.6
20260503012047 42 309 0.0 1.7 0.00 0.00 0.00 65 1016.5
20260503011600 42 309 0.0 2.6 0.00 0.00 0.00 65 1016.4
20260503011049 43 309 0.9 7.0 0.00 0.00 0.00 64 1016.4
20260503010547 43 309 2.6 7.0 0.00 0.00 0.00 63 1016.3
20260503010047 43 323 1.7 7.0 0.00 0.00 0.00 63 1016.3
20260503005550 43 277 1.7 8.7 0.00 0.00 0.00 62 1016.4
20260503005045 44 302 2.6 8.7 0.00 0.00 0.00 62 1016.2
20260503004548 44 331 3.5 8.7 0.00 0.00 0.00 61 1016.2
20260503004044 44 300 2.6 7.8 0.00 0.00 0.00 61 1016.3
20260503003544 44 297 2.6 7.8 0.00 0.00 0.00 61 1016.2
20260503003043 45 355 3.5 7.8 0.00 0.00 0.00 60 1016.1
20260503002544 45 320 3.5 9.6 0.00 0.00 0.00 59 1016.1
20260503002044 45 11 4.3 13.0 0.00 0.00 0.00 59 1016.0
20260503001543 45 304 6.1 13.0 0.00 0.00 0.00 58 1016.0
20260503001042 46 16 3.5 12.2 0.00 0.00 0.00 58 1015.8
20260503000643 46 312 7.8 14.8 0.00 0.00 0.00 57 1015.8
20260503000059 46 42 7.0 14.8 0.00 0.00 0.00 57 1015.6
20260502235542 46 330 3.5 12.2 0.00 0.00 0.00 56 1015.5
20260502235042 47 350 7.0 12.2 0.00 0.00 0.00 56 1015.4
20260502234552 47 337 5.2 9.6 0.00 0.00 0.00 54 1015.4
20260502234042 47 348 4.3 12.2 0.00 0.00 0.00 53 1015.2
20260502233540 48 296 6.1 13.0 0.00 0.00 0.00 53 1015.1
20260502233042 48 342 7.0 13.0 0.00 0.00 0.00 51 1015.1
20260502232542 48 306 6.1 13.9 0.00 0.00 0.00 51 1015.1
20260502232043 49 297 7.0 18.2 0.00 0.00 0.00 51 1015.0
20260502231540 49 333 7.8 18.2 0.00 0.00 0.00 51 1015.0
20260502231041 49 329 5.2 11.3 0.00 0.00 0.00 53 1015.0
20260502230540 49 314 6.1 11.3 0.00 0.00 0.00 51 1015.0
20260502230040 49 292 4.3 12.2 0.00 0.00 0.00 51 1014.9
20260502225539 50 301 7.8 15.6 0.00 0.00 0.00 50 1014.8
20260502225039 50 5 9.6 15.6 0.00 0.00 0.00 49 1014.8
20260502224539 50 360 7.8 12.2 0.00 0.00 0.00 50 1014.8
20260502224041 50 340 4.3 13.9 0.00 0.00 0.00 51 1014.8
20260502223538 50 360 7.0 12.2 0.00 0.00 0.00 51 1014.9
20260502223040 50 296 7.0 12.2 0.00 0.00 0.00 50 1014.9
20260502222539 51 32 4.3 14.8 0.00 0.00 0.00 51 1014.7
20260502222038 51 13 8.7 14.8 0.00 0.00 0.00 52 1014.8
20260502221539 51 355 6.1 9.6 0.00 0.00 0.00 51 1014.7
20260502221037 50 9 3.5 11.3 0.00 0.00 0.00 52 1014.6
20260502220537 50 318 5.2 14.8 0.00 0.00 0.00 53 1014.7
20260502220043 50 5 10.4 14.8 0.00 0.00 0.00 51 1014.4
20260502215536 50 296 8.7 13.0 0.00 0.00 0.00 51 1014.5
20260502215036 50 336 7.0 13.0 0.00 0.00 0.00 52 1014.3
20260502214539 50 311 5.2 13.9 0.00 0.00 0.00 51 1014.3
20260502214036 50 306 7.8 13.9 0.00 0.00 0.00 51 1014.3
20260502213539 51 329 6.1 13.0 0.00 0.00 0.00 50 1014.2
20260502213040 51 360 4.3 13.9 0.00 0.00 0.00 50 1014.1
20260502212536 52 344 6.1 15.6 0.00 0.00 0.00 49 1014.0
20260502212035 52 306 7.8 15.6 0.00 0.00 0.00 48 1014.0
20260502211538 53 316 9.6 15.6 0.00 0.00 0.00 48 1014.0
20260502211038 52 355 7.0 16.5 0.00 0.00 0.00 48 1013.8
20260502210537 52 348 7.8 16.5 0.00 0.00 0.00 49 1013.8
20260502210034 52 308 9.6 15.6 0.00 0.00 0.00 49 1013.7
20260502205535 52 355 9.6 15.6 0.00 0.00 0.00 49 1013.6
20260502205036 53 351 7.8 17.4 0.00 0.00 0.00 48 1013.5
20260502204537 53 330 8.7 17.4 0.00 0.00 0.00 44 1013.5
20260502204034 54 338 8.7 16.5 0.00 0.00 0.00 47 1013.5
20260502203533 54 16 7.0 13.9 0.00 0.00 0.00 46 1013.3
20260502203033 53 13 7.0 17.4 0.00 0.00 0.00 47 1013.4
20260502202533 54 294 10.4 17.4 0.00 0.00 0.00 45 1013.3
20260502202033 55 331 9.6 16.5 0.00 0.00 0.00 47 1013.2
20260502201541 55 333 7.8 15.6 0.00 0.00 0.00 43 1013.2
20260502201035 54 341 7.8 13.0 0.00 0.00 0.00 46 1013.2
20260502200532 54 348 6.1 13.9 0.00 0.00 0.00 45 1013.2
20260502200032 55 24 6.1 13.9 0.00 0.00 0.00 44 1013.1
20260502195532 54 317 5.2 14.8 0.00 0.00 0.00 45 1013.3
20260502195031 55 306 5.2 16.5 0.00 0.00 0.00 44 1013.4
20260502194533 57 338 4.3 13.9 0.00 0.00 0.00 44 1013.4
20260502194030 56 306 8.7 13.9 0.00 0.00 0.00 46 1013.5
20260502193528 56 310 5.2 14.8 0.00 0.00 0.00 47 1013.4
20260502193028 56 329 8.7 16.5 0.00 0.00 0.00 44 1013.5
20260502192528 55 15 10.4 16.5 0.00 0.00 0.00 43 1013.5
20260502192027 55 28 4.3 14.8 0.00 0.00 0.00 43 1013.7
20260502191527 55 349 8.7 14.8 0.00 0.00 0.00 43 1013.6
20260502191027 56 317 4.3 13.9 0.00 0.00 0.00 43 1013.5
20260502190526 55 338 5.2 14.8 0.00 0.00 0.00 43 1013.5
20260502190126 55 254 8.7 14.8 0.00 0.00 0.00 42 1013.3
20260502185524 55 292 5.2 14.8 0.00 0.00 0.00 43 1013.4
20260502185024 55 292 7.8 13.9 0.00 0.00 0.00 44 1013.4
20260502184523 55 281 6.1 13.9 0.00 0.00 0.00 42 1013.4
20260502184022 54 316 5.2 13.0 0.00 0.00 0.00 50 1013.6
20260502183521 54 329 7.0 13.0 0.00 0.00 0.00 44 1013.5
20260502183020 53 36 7.0 13.9 0.00 0.00 0.00 47 1013.7
20260502182521 54 340 9.6 13.9 0.00 0.00 0.00 45 1013.7
20260502182021 54 268 4.3 13.0 0.00 0.00 0.00 47 1013.7
20260502181518 54 300 7.0 13.0 0.00 0.00 0.00 45 1014.0
20260502181017 54 5 4.3 10.4 0.00 0.00 0.00 47 1014.0
20260502180516 53 360 4.3 12.2 0.00 0.00 0.00 46 1014.1
20260502170509 52 11 5.2 11.3 0.00 0.00 0.00 50 1014.8
20260502164006 51 291 3.5 10.4 0.00 0.00 0.00 48 1015.2
20260502163506 51 355 5.2 12.2 0.00 0.00 0.00 52 1015.3
20260502163011 50 304 4.3 12.2 0.00 0.00 0.00 51 1015.3
20260502162505 51 43 6.1 12.2 0.00 0.00 0.00 50 1015.2
20260502162004 50 5 7.0 12.2 0.00 0.00 0.00 51 1015.3
20260502161503 50 15 6.1 12.2 0.00 0.00 0.00 51 1015.5
20260502161004 50 295 7.0 13.0 0.00 0.00 0.00 53 1015.5
20260502160504 49 13 7.0 13.0 0.00 0.00 0.00 54 1015.4
20260502152058 46 360 7.8 13.9 0.00 0.00 0.00 54 1015.8
20260502151612 46 19 4.3 10.4 0.00 0.00 0.00 59 1015.8
20260502151058 46 350 6.1 11.3 0.00 0.00 0.00 59 1015.8
20260502150558 46 67 6.1 11.3 0.00 0.00 0.00 58 1015.7
20260502130552 43 35 5.2 14.8 0.00 0.00 0.00 62 1015.7
20260502130103 43 333 7.0 14.8 0.00 0.00 0.00 62 1015.8
20260502123546 42 15 3.5 11.3 0.00 0.00 0.00 65 1015.3
20260502123047 42 10 6.1 11.3 0.00 0.00 0.00 66 1015.3
20260502122547 42 9 4.3 10.4 0.00 0.00 0.00 66 1015.3
20260502122046 42 15 5.2 10.4 0.00 0.00 0.00 67 1015.2
20260502121546 42 12 5.2 10.4 0.00 0.00 0.00 67 1015.2
20260502121046 42 350 5.2 12.2 0.00 0.00 0.00 67 1015.1
20260502120545 42 20 6.1 12.2 0.00 0.00 0.00 67 1015.1
20260502115543 42 360 5.2 12.2 0.00 0.00 0.00 70 1015.3
20260502115043 42 355 5.2 12.2 0.00 0.00 0.00 70 1015.4
20260502114542 42 9 5.2 13.9 0.00 0.00 0.00 72 1015.3
20260502114042 42 345 8.7 13.9 0.00 0.00 0.00 71 1015.3
20260502113541 42 346 5.2 12.2 0.00 0.00 0.00 71 1015.3
20260502113049 42 9 6.1 11.3 0.00 0.00 0.00 71 1015.3
20260502112540 42 340 5.2 11.3 0.00 0.00 0.00 72 1015.0
20260502112041 42 331 6.1 11.3 0.00 0.00 0.00 71 1015.0
20260502111543 42 5 7.8 11.3 0.00 0.00 0.00 72 1015.0
20260502111037 42 355 5.2 9.6 0.00 0.00 0.00 73 1015.1
20260502110537 42 355 4.3 11.3 0.00 0.00 0.00 73 1014.9
20260502110038 42 355 4.3 11.3 0.00 0.00 0.00 73 1014.9
20260502105536 42 348 6.1 11.3 0.00 0.00 0.00 73 1014.7
20260502105038 42 13 6.1 11.3 0.00 0.00 0.00 72 1014.8
20260502104535 42 5 5.2 11.3 0.00 0.00 0.00 73 1014.6
20260502104034 42 5 6.1 11.3 0.00 0.00 0.00 72 1014.8
20260502103533 42 360 6.1 10.4 0.00 0.00 0.00 73 1014.8
20260502103032 43 9 5.2 9.6 0.00 0.00 0.00 73 1014.7
20260502102532 43 347 4.3 11.3 0.00 0.00 0.00 73 1014.6
20260502102031 43 346 6.1 10.4 0.00 0.00 0.00 74 1014.7
20260502101529 43 355 6.1 11.3 0.00 0.00 0.00 75 1014.6
20260502101028 43 355 3.5 11.3 0.00 0.00 0.00 77 1014.6
20260502100527 43 360 5.2 10.4 0.00 0.00 0.00 77 1014.8
20260502091522 44 325 4.3 12.2 0.00 0.00 0.00 81 1015.0
20260502091020 44 349 7.8 12.2 0.00 0.00 0.00 81 1015.1
20260502090520 44 355 6.1 12.2 0.00 0.00 0.00 81 1015.2
20260502071504 46 355 3.5 7.8 0.00 0.00 0.00 78 1014.5
20260502071004 46 321 2.6 7.8 0.00 0.00 0.00 78 1014.4
20260502070507 46 14 4.3 8.7 0.00 0.00 0.00 78 1014.3
20260502070005 46 360 5.2 9.6 0.00 0.00 0.00 78 1014.2
20260502065502 46 27 5.2 9.6 0.00 0.00 0.00 78 1014.3
20260502065100 46 13 3.5 10.4 0.00 0.00 0.00 78 1014.4
20260502064623 46 17 4.3 10.4 0.00 0.00 0.00 78 1014.7
20260502064058 46 10 3.5 7.8 0.00 0.00 0.00 77 1014.8
20260502063557 47 346 2.6 7.8 0.00 0.00 0.00 77 1015.0